Weather Roundup
Issued by NWS Chicago, IL

Home | Current Version | Previous Version | Graphics & Text | Print | Product List | Glossary On
Versions: 1 2 3 4 5 6 7 8 9 10 11 12 13 14 15 16 17 18 19 20 21 22 23 24 25 26 27 28 29 30 31 32 33 34 35 36 37 38 39 40 41 42 43 44 45 46 47 48 49 50
000
NZUS59 KLOT 010700
HRRLOT

CHICAGO AREA WEATHER ROUNDUP
NATIONAL WEATHER SERVICE CHICAGO/ROMEOVILLE IL
100 AM CST SUN MAR 01 2015

NOTE: "FAIR" INDICATES FEW OR NO CLOUDS BELOW 12,000 FEET WITH NO
SIGNIFICANT WEATHER AND/OR OBSTRUCTIONS TO VISIBILITY.

* THESE STATIONS ARE NOT UNDER NWS QUALITY CONTROL. THEY ALSO MAY NOT
  REPORT WEATHER SUCH AS PRECIPITATION OR FOG.

ILZ005-006-012>014-019>023-010800-
NORTHEAST ILLINOIS

CITY           SKY/WX    TMP DP  RH WIND       PRES   REMARKS
OHARE          LGT SNOW  18  14  84 S7        30.42F FOG     WCI   9
MIDWAY         FLURRIES  20  15  81 S7        30.43F WCI  11
AURORA         MOCLDY    18  13  80 SE7       30.42F HAZE    WCI   9
LANSING*       FLURRIES  19  16  87 SE5       30.45F WCI  12
WAUKEGAN       CLOUDY    15  12  88 S3        30.42F
DUPAGE AIRPORT CLOUDY    17  13  84 S6        30.41F WCI   9
WHEELING       CLOUDY    17  13  84 S5        30.44F FOG     WCI  10
NORTHERLY IS     N/A     20  15  81 S5          N/A  WCI  14
$$

WIZ051-052-058>065-066-070>072-010800-
SOUTHEAST WISCONSIN

CITY           SKY/WX    TMP DP  RH WIND       PRES   REMARKS
MILWAUKEE      FLURRIES  17  10  74 SW6       30.43F WCI   9
KENOSHA*       CLOUDY    15  12  88 CALM      30.43F
RACINE*        MOCLDY    17  10  74 SW5       30.45F WCI  10
$$

INZ001>003-010>013-019-020-010800-
NORTHWEST INDIANA

CITY           SKY/WX    TMP DP  RH WIND       PRES   REMARKS
GARY*          FLURRIES  21  14  74 CALM      30.45F
MICHIGAN CITY* NOT AVBL
RENSSELAER*    NOT AVBL
$$

LMZ740>746-010800-
SOUTHERN LAKE MICHIGAN

STATION/POSITION TIME  SKY/WX   TEMP WIND        PRES    VSBY
                                AIR  DIR/SP/G
                 (UTC)          (F)  (DEG/KT/KT) (MB)    (MI)
HARRISON CRIB    0600            20  180/ 12/ 14   N/A
BURNHAM HARBOR   0700            19  190/  4/  9   N/A
CALUMET HARBOR   0600            19  160/  3/  4 1029.9F
BURNS HARBOR     NOT AVBL
MICHIGAN CITY    0600            17  120/  4/  5   N/A
$$

ABBREVIATIONS USED IN REMARKS
   TC - TEMPERATURE IN CELSIUS
  WCI - WIND CHILL INDEX
   HX - HEAT INDEX
  VSB - VISIBILITY
$$



USA.gov is the U.S. government's official web portal to all federal, state and local government web resources and services.